sat.trackr.live / text

‹ back to catalog

ONEWEB-0537

NORAD 56046 · 2023-043A

PAYLOAD ACTIVE UNKNOWN

§ Identity

Operator
Country
UK
Launch date
2023-03-26
Launch site
SRILR
Launch vehicle
Mass (kg)
RCS (m²)

Purposes: comms

External: N2YO · Heavens-Above · Gunter

§ Orbital elements

Epoch: 2026-05-24T22:32:54.597120Z

Period
109.37 min
Inclination
87.9107°
Eccentricity
0.0002097
Mean motion
13.16592804 rev/d
Perigee alt
1,196.2 km
Apogee alt
1,199.4 km
Semi-major
7,575.9 km
B*
1.4991e-4
RAAN
233.3873°
Arg perigee
106.2930°
Mean anomaly
253.8431°
Rev number
15,590

§ Raw data

ONEWEB-05371 56046U 23043A   26144.93952080  .00000070  00000+0  14991-3 0  99992 56046  87.9107 233.3873 0002097 106.2930 253.8431 13.16592804155908

JSON: /api/v1/satellites/56046 · /tle

For live sub-satellite position, see the globe view (requires WebGL).

§ Visibility from observer

Set your observer location to see the next 7 days of passes ≥ 10°. The values pass through the URL so the page stays shareable.

No JS? Fill the form by hand. The geolocation button needs JavaScript.